This is the latest recevied weather packets stored in our database for station/object KQ4KX. If no packets are shown the sender has not sent any weather packets the latest 10 day(s).
| Time | Temp. | Humidity | Pressure | Rain* | Wind** | Luminosity | Snow |
|---|---|---|---|---|---|---|---|
| 1788049555 | 24.44° C | 99% | 1017.2 hPa | 0.76 mm | - | - | - |
| 1788049404 | 24.44° C | 99% | 1017.2 hPa | 0.76 mm | - | - | - |
| 1788049267 | 24.44° C | 99% | 1017.3 hPa | 1.02 mm | - | - | - |
| 1788049074 | 24.44° C | 99% | 1017.3 hPa | 1.02 mm | - | - | - |
| 1788048902 | 24.44° C | 99% | 1017.5 hPa | 0.76 mm | - | - | - |
| 1788048744 | 24.44° C | 99% | 1017.5 hPa | 0.76 mm | - | - | - |
| 1788048618 | 24.44° C | 99% | 1017.6 hPa | 0.76 mm | - | - | - |
| 1788048445 | 24.44° C | 99% | 1017.6 hPa | 0.76 mm | - | - | - |
| 1788048011 | 24.44° C | 99% | 1017.7 hPa | 0.76 mm | - | - | - |
| 1788047844 | 24.44° C | 99% | 1017.7 hPa | 0.76 mm | - | - | - |
| 1788047514 | 24.44° C | 99% | 1017.9 hPa | 0.76 mm | - | - | - |
| 1788047358 | 24.44° C | 99% | 1018 hPa | 0.76 mm | - | - | - |
| 1788047214 | 24.44° C | 99% | 1018 hPa | 0.76 mm | - | - | - |
| 1788047015 | 24.44° C | 99% | 1018 hPa | 0.76 mm | - | - | - |
| 1788046884 | 24.44° C | 99% | 1018 hPa | 0.76 mm | - | - | - |
| 1788046647 | 24.44° C | 98% | 1018.1 hPa | 1.02 mm | - | - | - |
| 1788046554 | 24.44° C | 98% | 1018.1 hPa | 1.02 mm | - | - | - |
| 1788046024 | 24.44° C | 98% | 1018 hPa | 1.52 mm | - | - | - |
| 1788045894 | 24.44° C | 98% | 1018 hPa | 1.52 mm | - | - | - |
| 1788045564 | 23.89° C | 98% | 1017.9 hPa | 1.78 mm | - | - | - |
| 1788045401 | 23.89° C | 98% | 1017.9 hPa | 2.03 mm | - | - | - |
| 1788045264 | 23.89° C | 98% | 1017.9 hPa | 2.03 mm | - | - | - |
| 1788044451 | 23.89° C | 98% | 1017.8 hPa | 2.29 mm | - | - | - |
| 1788044334 | 23.89° C | 98% | 1017.8 hPa | 2.29 mm | - | - | - |
| 1788043674 | 23.89° C | 97% | 1017.5 hPa | 2.03 mm | - | - | - |
* Rain latest hour (hover to see other rain measurements)
** Current wind speed in m/s (hover to see current wind gust speed)